NOAA 16 DEB, 41304

Orbit data source: Space-Track

NOAA 16 DEB, 41304 is space debris in SSO originally from a launch on Thu, 21 Sep 2000 UTC launched from the Air Force Western Test Range (AFWTR). Debris objects in space refer to the collection of defunct objects orbiting the Earth. Examples of debris include non-operational satellites, rocket bodies, and fragments generated from explosions, collisions, or faulty payload assembly.

Loading next visibility...
Identifier
41304, 2000-055HG
Orbit
SSO
Country
Flag of USUS
Related business
Manufacturer
Unknown
Mission
Spacecraft
Bus & Motor
Unknown
Mass
Unknown
Launch date (UTC)
2000-09-21 (25 years ago)
Launch vehicle
Unknown
Launch site
Air Force Western Test Range (AFWTR)
Object type
Payload
Rocket body
Debris
Shape & HBR
Unknown shape, 0.1 m
Radar Cross Section
Small (<0.1 m²)

Expand to show TLE details & history
Last TLE update: 1 week ago

TLE from 1 week ago
0 NOAA 16 DEB
1 41304U 00055HG  25285.68247424  .00011041  00000-0  40547-2 0  9990
2 41304  99.0664  75.7569 0034355 274.0152  85.7103 14.32556368505005
Epoch: 2025-10-12T16:22Z
TLE epoch observation values (Epoch: 2025-10-12T16:22:45.774Z)
Latitude
-0.00006°
Longitude
168.57008°
Altitude
784.362 km
Speed
7.463 km/s
True Right ascension
05h 03m 01s
True Declination
0° 00' 00"
Sunlit
Object was in full shadow at epoch
Visualization orbit readout
Latitude
Unknown
Longitude
Unknown
Altitude
Unknown
Speed
Unknown
Apparent Right ascension
Unknown
Apparent Declination
Unknown
Sunlit
N/A
Visualization observer readout
Local Sidereal Time
13:40:09
Azimuth
Unknown
Elevation
Unknown
Doppler factor
Unknown
Orbital elements
Apogee altitude
804.951 km
Perigee altitude
755.765 km
Semi-major axis
7,158.495 km
Eccentricity
0.00344
Inclination
99.0664°
RAAN
75.7569°
Arg. of periapsis
274.0152°
True anomaly
86.103°
Mean anomaly
85.7103°
Eccentric anomaly
85.90664°
Mean motion
3.58353 °/min
Orbital period
100.46 mins
BSTAR
0.0040547
Loading maneuver chart data...
Computing Atmospheric mass density...

Documentation

Showing up to 5 results
|